CW0198 Weather Reports


Display with metric or nautical units.
time (UTC)temp
F
wind
direction
speed
MPH
gust
MPH
rain 1hr
in
rain 24hr
in
rain mn
in
humidity
%
barometer
mb
20260506031501 65 226 5.0 12.0 0.00 0.00 0.00 77 1015.7
20260506030021 66 194 5.0 10.0 0.00 0.00 0.00 76 1015.7
20260506024541 66 210 4.0 10.0 0.00 0.00 0.00 74 1015.6
20260506023005 67 153 6.0 10.0 0.00 0.00 0.00 72 1015.6
20260506021530 67 201 6.0 13.0 0.00 0.00 0.00 71 1015.5
20260506020053 68 183 7.0 15.0 0.00 0.00 0.00 70 1015.2
20260506014528 68 200 3.0 9.0 0.00 0.00 0.00 68 1015.0
20260506013045 69 172 3.0 10.0 0.00 0.00 0.00 67 1014.8
20260506011504 70 197 4.0 11.0 0.00 0.00 0.00 66 1014.6
20260506010031 70 191 4.0 13.0 0.00 0.00 0.00 65 1014.3
20260506004622 71 188 4.0 14.0 0.00 0.00 0.00 63 1014.0
20260506003008 71 127 2.0 13.0 0.00 0.00 0.00 62 1014.0
20260506001535 72 129 4.0 10.0 0.00 0.00 0.00 60 1013.8
20260506000052 73 169 5.0 12.0 0.00 0.00 0.00 59 1013.5
20260505234559 75 189 5.0 13.0 0.00 0.00 0.00 57 1013.4
20260505233043 77 180 5.0 13.0 0.00 0.00 0.00 55 1013.3
20260505231508 77 247 6.0 11.0 0.00 0.00 0.00 53 1013.3
20260505230030 78 229 6.0 10.0 0.00 0.00 0.00 53 1013.3
20260505224551 79 219 3.0 7.0 0.00 0.00 0.00 52 1013.4
20260505223012 78 198 2.0 9.0 0.00 0.00 0.00 52 1013.5
20260505221537 79 193 6.0 11.0 0.00 0.00 0.00 51 1013.6
20260505220143 80 248 6.0 14.0 0.00 0.00 0.00 49 1013.7
20260505214522 80 186 7.0 14.0 0.00 0.00 0.00 48 1013.7
20260505213046 80 212 5.0 12.0 0.00 0.00 0.00 48 1013.6
20260505211612 80 228 6.0 15.0 0.00 0.00 0.00 49 1013.6
20260505210029 81 212 6.0 13.0 0.00 0.00 0.00 47 1013.9
20260505204544 80 169 4.0 14.0 0.00 0.00 0.00 50 1013.8
20260505203008 82 209 7.0 12.0 0.00 0.00 0.00 48 1013.8
20260505201528 81 144 5.0 15.0 0.00 0.00 0.00 48 1013.8
20260505200051 80 219 5.0 14.0 0.00 0.00 0.00 48 1014.1
20260505194608 81 229 6.0 14.0 0.00 0.00 0.00 48 1014.3
20260505194502 81 226 6.0 14.0 0.00 0.00 0.00 47 1014.4
20260505193023 80 201 4.0 11.0 0.00 0.00 0.00 48 1014.6
20260505191536 81 219 7.0 14.0 0.00 0.00 0.00 47 1014.8
20260505184526 81 221 4.0 10.0 0.00 0.00 0.00 47 1015.2
20260505183047 81 173 5.0 12.0 0.00 0.00 0.00 49 1015.4
20260505181504 80 198 5.0 14.0 0.00 0.00 0.00 50 1015.5
20260505180018 80 153 4.0 9.0 0.00 0.00 0.00 49 1015.7
20260505174534 79 160 5.0 12.0 0.00 0.00 0.00 51 1015.7
20260505173052 79 162 7.0 13.0 0.00 0.00 0.00 51 1015.7
20260505171514 78 195 6.0 13.0 0.00 0.00 0.00 53 1016.0
20260505170036 78 191 5.0 10.0 0.00 0.00 0.00 53 1016.1
20260505164604 78 193 4.0 12.0 0.00 0.00 0.00 55 1016.2
20260505163016 78 204 2.0 10.0 0.00 0.00 0.00 55 1016.3
20260505161534 77 229 4.0 14.0 0.00 0.00 0.00 58 1016.3
20260505160105 77 225 3.0 8.0 0.00 0.00 0.00 62 1016.7
20260505153045 74 221 6.0 9.0 0.00 0.00 0.00 62 1016.9
20260505151608 73 233 3.0 11.0 0.00 0.00 0.00 63 1017.0
20260505124517 64 245 1.0 6.0 0.00 0.00 0.00 78 1016.9
20260505123043 61 198 3.0 7.0 0.00 0.00 0.00 79 1017.0
20260505121503 59 219 2.0 5.0 0.00 0.00 0.00 83 1017.0
20260505120038 57 251 1.0 4.0 0.00 0.00 0.00 84 1016.8
20260505114548 56 167 0.0 2.0 0.00 0.00 0.00 86 1016.7
20260505113017 55 140 0.0 2.0 0.00 0.00 0.00 88 1016.7
20260505111543 53 141 0.0 1.0 0.00 0.00 0.00 89 1016.6
20260505110109 52 173 0.0 0.0 0.00 0.00 0.00 90 1016.4
20260505101516 53 167 0.0 0.0 0.00 0.00 0.00 88 1015.9
20260505100029 53 141 0.0 0.0 0.00 0.00 0.00 87 1015.8
20260505094554 53 195 0.0 0.0 0.00 0.00 0.00 87 1015.7
20260505093009 54 227 0.0 0.0 0.00 0.00 0.00 85 1015.6
20260505091537 55 232 0.0 0.0 0.00 0.00 0.00 84 1015.6
20260505090049 55 214 0.0 2.0 0.00 0.00 0.00 84 1015.4
20260505084508 56 217 0.0 2.0 0.00 0.00 0.00 82 1015.4
20260505083025 56 200 0.0 3.0 0.00 0.00 0.00 82 1015.2
20260505081541 56 162 0.0 4.0 0.00 0.00 0.00 81 1015.1
20260505080106 57 150 1.0 4.0 0.00 0.00 0.00 80 1015.2
20260505080005 57 162 1.0 4.0 0.00 0.00 0.00 80 1015.0
20260505074523 57 210 3.0 5.0 0.00 0.00 0.00 79 1015.1
20260505073052 58 211 2.0 7.0 0.00 0.00 0.00 78 1015.0
20260505071503 58 198 4.0 7.0 0.00 0.00 0.00 77 1015.0
20260505070036 58 212 2.0 5.0 0.00 0.00 0.00 77 1014.9
20260505064541 59 210 2.0 7.0 0.00 0.00 0.00 76 1015.0
20260505063009 59 207 3.0 7.0 0.00 0.00 0.00 75 1014.9
20260505061532 59 221 2.0 8.0 0.00 0.00 0.00 74 1015.0
20260505060053 60 184 4.0 7.0 0.00 0.00 0.00 74 1015.1
20260505054502 60 188 2.0 8.0 0.00 0.00 0.00 73 1015.4
20260505053023 61 221 3.0 6.0 0.00 0.00 0.00 72 1015.4
20260505051537 61 218 3.0 7.0 0.00 0.00 0.00 72 1015.5
20260505041531 62 186 3.0 10.0 0.00 0.00 0.00 70 1015.5
20260505040049 63 162 3.0 11.0 0.00 0.00 0.00 70 1015.3
20260505034559 63 226 3.0 8.0 0.00 0.00 0.00 69 1015.3
20260505034513 63 211 3.0 8.0 0.00 0.00 0.00 70 1015.4
20260505033025 63 210 3.0 8.0 0.00 0.00 0.00 69 1015.3
20260505031605 63 200 4.0 8.0 0.00 0.00 0.00 68 1015.3